DMSP 5D-3 F16 (USA 172) 1 28054U 03048A 26072.60808610 .00000169 00000+0 11185-3 0 9994 2 28054 98.9989 95.7648 0008025 62.9085 43.9349 14.14463756155977 METEOSAT-9 (MSG-2) 1 28912U 05049B 26072.50792468 .00000128 00000+0 00000+0 0 9997 2 28912 9.1445 55.0898 0000184 58.1827 286.5308 1.00267419 6037 DMSP 5D-3 F17 (USA 191) 1 29522U 06050A 26072.56720643 .00000222 00000+0 13696-3 0 9994 2 29522 98.7413 81.0836 0009558 335.4246 24.6470 14.14966025998898 FENGYUN 3A 1 32958U 08026A 26072.32994884 .00000108 00000+0 71678-4 0 9998 2 32958 98.6798 15.0003 0009589 48.8717 311.3286 14.19547633921808 GOES 14 1 35491U 09033A 26072.53378045 .00000112 00000+0 00000+0 0 9991 2 35491 1.4414 84.2799 0001689 273.6612 201.6343 1.00103091 5636 DMSP 5D-3 F18 (USA 210) 1 35951U 09057A 26072.60192123 .00000318 00000+0 18804-3 0 9990 2 35951 98.8968 53.6182 0011353 157.2990 202.8687 14.14838767846071 EWS-G2 (GOES 15) 1 36411U 10008A 26072.58272561 .00000021 00000+0 00000+0 0 9998 2 36411 1.0294 84.9309 0002514 16.9992 342.4656 1.00270236 58671 COMS 1 1 36744U 10032A 26072.53601578 -.00000343 00000+0 00000+0 0 9991 2 36744 4.5572 76.7233 0000794 287.0503 128.5080 1.00273564 50133 FENGYUN 3B 1 37214U 10059A 26072.63912308 .00000465 00000+0 26363-3 0 9998 2 37214 98.9762 118.1959 0023120 97.3646 57.5262 14.14819834793916 SUOMI NPP 1 37849U 11061A 26072.54941301 .00000102 00000+0 69196-4 0 9991 2 37849 98.7873 14.1215 0000641 202.3308 157.7841 14.19544815744873 METEOSAT-10 (MSG-3) 1 38552U 12035B 26072.57015890 -.00000005 00000+0 00000+0 0 9990 2 38552 4.4441 61.4174 0002372 288.5019 26.6902 1.00269262 49895 METOP-B 1 38771U 12049A 26072.59807138 .00000124 00000+0 76801-4 0 9992 2 38771 98.6634 125.9519 0001276 244.9616 115.1429 14.21446098699684 INSAT-3D 1 39216U 13038B 26072.59581234 -.00000339 00000+0 00000+0 0 9994 2 39216 1.6775 83.7923 0001560 247.5378 183.8723 1.00276390 46122 FENGYUN 3C 1 39260U 13052A 26072.56295159 .00000145 00000+0 94748-4 0 9995 2 39260 98.4897 50.8740 0013685 301.3591 58.6244 14.15730401645039 METEOR-M 2 1 40069U 14037A 26072.62530005 .00000310 00000+0 16088-3 0 9991 2 40069 98.5033 51.7934 0005134 325.3890 34.6953 14.21431198605747 HIMAWARI-8 1 40267U 14060A 26072.56850266 -.00000276 00000+0 00000+0 0 9999 2 40267 0.0172 169.3995 0000280 162.8544 184.2797 1.00271954 41803 FENGYUN 2G 1 40367U 14090A 26072.51858472 -.00000301 00000+0 00000+0 0 9994 2 40367 5.3957 73.9703 0001476 140.8366 242.7430 1.00271349 41044 METEOSAT-11 (MSG-4) 1 40732U 15034A 26072.57197890 .00000062 00000+0 00000+0 0 9998 2 40732 2.9612 71.6256 0001840 273.7428 40.9859 1.00268996 6250 ELEKTRO-L 2 1 41105U 15074A 26072.35329765 -.00000115 00000+0 00000+0 0 9991 2 41105 6.4524 71.6974 0002803 249.1774 322.7737 1.00273284 37542 INSAT-3DR 1 41752U 16054A 26072.51347137 -.00000077 00000+0 00000+0 0 9996 2 41752 0.0695 91.9371 0012715 190.3445 147.6974 1.00272084 34855 HIMAWARI-9 1 41836U 16064A 26072.32490329 -.00000275 00000+0 00000+0 0 9991 2 41836 0.0168 188.9082 0001493 206.6887 33.0744 1.00270032 34248 GOES 16 1 41866U 16071A 26072.54935153 -.00000091 00000+0 00000+0 0 9991 2 41866 0.1280 87.3267 0002173 229.8213 307.0978 1.00272525 34141 FENGYUN 4A 1 41882U 16077A 26072.59459899 -.00000356 00000+0 00000+0 0 9992 2 41882 2.0781 81.2946 0007149 133.2599 294.4652 1.00275069 33970 CYGFM05 1 41884U 16078A 26072.62340591 .00027496 00000+0 43543-3 0 9993 2 41884 34.9572 171.4060 0006821 321.0431 38.9800 15.52393759513878 CYGFM04 1 41885U 16078B 26072.59964262 .00032125 00000+0 44777-3 0 9992 2 41885 34.9328 143.4919 0005281 356.9984 3.0707 15.55866739514077 CYGFM02 1 41886U 16078C 26072.55904927 .00035956 00000+0 45879-3 0 9990 2 41886 34.9414 140.5732 0006244 359.1358 0.9355 15.58202691514210 CYGFM01 1 41887U 16078D 26072.58513469 .00028488 00000+0 44379-3 0 9997 2 41887 34.9402 173.4195 0006584 311.7571 48.2588 15.52843139513814 CYGFM08 1 41888U 16078E 26072.62456750 .00030385 00000+0 44163-3 0 9992 2 41888 34.9433 154.9395 0007643 341.3808 18.6635 15.54723733514065 CYGFM07 1 41890U 16078G 26072.59043391 .00031297 00000+0 44926-3 0 9994 2 41890 34.9452 143.6001 0005769 0.0004 0.0719 15.55072663514082 CYGFM03 1 41891U 16078H 26072.56146435 .00030493 00000+0 43777-3 0 9995 2 41891 34.9409 145.7655 0005248 343.1801 16.8748 15.55075573514058 FENGYUN 3D 1 43010U 17072A 26072.65328273 -.00000187 00000+0 -66663-4 0 9996 2 43010 99.0037 45.3972 0001406 5.1192 354.9997 14.19715500431431 NOAA 20 (JPSS-1) 1 43013U 17073A 26072.56410833 .00000100 00000+0 68225-4 0 9993 2 43013 98.7695 12.9127 0001372 132.6241 227.5051 14.19537252430908 GOES 17 1 43226U 18022A 26072.55238487 -.00000183 00000+0 00000+0 0 9990 2 43226 0.6902 87.3416 0001632 234.7557 318.4256 1.00272798 29466 FENGYUN 2H 1 43491U 18050A 26072.58575896 -.00000127 00000+0 00000+0 0 9994 2 43491 2.7828 80.2378 0001349 170.5304 210.4133 1.00272682 28489 METOP-C 1 43689U 18087A 26072.62230736 .00000137 00000+0 82651-4 0 9996 2 43689 98.6757 133.9284 0002187 94.2416 265.9012 14.21498449381258 GEO-KOMPSAT-2A 1 43823U 18100A 26072.59555233 -.00000344 00000+0 00000+0 0 9994 2 43823 0.0354 25.9384 0001635 29.4293 98.5124 1.00271489 26671 METEOR-M2 2 1 44387U 19038A 26072.56844016 .00000349 00000+0 17110-3 0 9996 2 44387 98.9095 58.4738 0000681 353.0959 7.0210 14.24336500347688 ARKTIKA-M 1 1 47719U 21016A 26065.31200600 -.00000142 00000+0 00000+0 0 9995 2 47719 63.2063 72.3539 7244489 269.4705 15.1937 2.00620361 36724 FENGYUN 3E 1 49008U 21062A 26072.57776251 -.00000046 00000+0 -11593-5 0 9994 2 49008 98.7520 77.0484 0002138 34.9477 325.1839 14.19893707243012 GOES 18 1 51850U 22021A 26072.53919919 .00000096 00000+0 00000+0 0 9992 2 51850 0.0336 32.3040 0000837 32.4098 163.5492 1.00271870 5639 NOAA 21 (JPSS-2) 1 54234U 22150A 26072.52828816 .00000099 00000+0 67790-4 0 9995 2 54234 98.7557 12.7502 0002724 99.7552 260.3932 14.19553415172979 METEOSAT-12 (MTG-I1) 1 54743U 22170C 26072.35615766 -.00000007 00000+0 00000+0 0 9997 2 54743 0.7103 22.7830 0001755 292.3880 343.6830 1.00271254 12011 TIANMU-1 03 1 55973U 23039A 26072.57283589 .00020064 00000+0 43633-3 0 9993 2 55973 97.5180 243.0230 0003999 90.4904 269.6802 15.44351677166066 TIANMU-1 04 1 55974U 23039B 26072.66002708 .00020372 00000+0 43671-3 0 9990 2 55974 97.5112 242.2720 0004595 85.4248 274.7525 15.44770560166082 TIANMU-1 05 1 55975U 23039C 26072.61437244 .00018965 00000+0 41343-3 0 9992 2 55975 97.5159 242.7158 0003896 107.3627 252.8048 15.44292225166053 TIANMU-1 06 1 55976U 23039D 26072.65976037 .00020388 00000+0 43669-3 0 9990 2 55976 97.5170 243.3067 0004144 102.6912 257.4800 15.44798268166083 FENGYUN 3G 1 56232U 23055A 26072.56018249 .00027580 00000+0 45335-3 0 9999 2 56232 49.9923 119.0529 0006009 311.2055 48.8393 15.52105583165142 METEOR-M2 3 1 57166U 23091A 26072.61177792 .00000005 00000+0 21147-4 0 9990 2 57166 98.6206 129.4958 0005101 90.2055 269.9708 14.24038085140915 TIANMU-1 07 1 57399U 23101A 26072.64193743 .00008204 00000+0 29207-3 0 9990 2 57399 97.2724 125.5030 0004892 126.3458 233.8235 15.29192600147041 TIANMU-1 08 1 57400U 23101B 26066.00237819 .00000346 00000+0 14775-4 0 9993 2 57400 97.2717 118.7901 0006380 134.2174 225.9592 15.29204229146020 TIANMU-1 09 1 57401U 23101C 26072.59349737 .00007549 00000+0 26936-3 0 9991 2 57401 97.2670 124.7066 0005138 129.9083 230.2610 15.29142241147035 TIANMU-1 10 1 57402U 23101D 26072.56190271 .00008044 00000+0 28555-3 0 9996 2 57402 97.2749 125.6233 0007104 123.3852 236.8069 15.29279698147022 FENGYUN 3F 1 57490U 23111A 26072.63409243 .00000070 00000+0 53669-4 0 9990 2 57490 98.6916 144.3941 0001178 77.5326 282.5983 14.19920465135309 ARKTIKA-M 2 1 58584U 23198A 26064.07652728 .00000150 00000+0 00000+0 0 9992 2 58584 63.2186 165.9003 6877723 267.7621 18.8474 2.00612038 16239 TIANMU-1 11 1 58645U 23205A 26072.60954654 .00007024 00000+0 27618-3 0 9995 2 58645 97.3548 95.6968 0008522 354.5553 5.5592 15.25938620122941 TIANMU-1 12 1 58646U 23205B 26072.57657774 .00007504 00000+0 29562-3 0 9998 2 58646 97.3536 95.4422 0006298 339.5668 20.5317 15.25867388122922 TIANMU-1 13 1 58647U 23205C 26072.60734729 .00007448 00000+0 29300-3 0 9996 2 58647 97.3564 95.7131 0006063 316.8333 43.2429 15.25917375122929 TIANMU-1 14 1 58648U 23205D 26072.59197752 .00007104 00000+0 27977-3 0 9991 2 58648 97.3497 94.9632 0006944 321.0776 38.9962 15.25892699122923 TIANMU-1 19 1 58660U 23208A 26072.58888473 .00010886 00000+0 37816-3 0 9998 2 58660 97.4383 188.5802 0003794 299.1825 60.9035 15.29924167122703 TIANMU-1 20 1 58661U 23208B 26072.57017753 .00011291 00000+0 37792-3 0 9997 2 58661 97.4323 189.0990 0006038 308.8307 51.2395 15.31112511122784 TIANMU-1 21 1 58662U 23208C 26072.56359330 .00011873 00000+0 37302-3 0 9990 2 58662 97.4377 191.3817 0005858 302.0381 58.0291 15.33136540122909 TIANMU-1 22 1 58663U 23208D 26072.60750477 .00010165 00000+0 35758-3 0 9999 2 58663 97.4379 188.6073 0002845 336.9361 23.1751 15.29535123122710 TIANMU-1 15 1 58700U 24004A 26072.58971499 .00007298 00000+0 28740-3 0 9998 2 58700 97.4675 258.8226 0006363 335.4734 24.6201 15.25896142121192 TIANMU-1 16 1 58701U 24004B 26072.63868988 .00008152 00000+0 32038-3 0 9998 2 58701 97.4616 258.1918 0004855 341.7731 18.3333 15.25934081121203 TIANMU-1 17 1 58702U 24004C 26072.62093001 .00007762 00000+0 30490-3 0 9990 2 58702 97.4648 258.6297 0004122 345.6648 14.4473 15.25968902121190 TIANMU-1 18 1 58703U 24004D 26072.60623595 .00007244 00000+0 28525-3 0 9997 2 58703 97.4666 258.8271 0003532 347.4744 12.6405 15.25913255121192 INSAT-3DS 1 58990U 24033A 26072.58636563 -.00000156 00000+0 00000+0 0 9993 2 58990 0.0319 246.9688 0002153 121.6117 95.7867 1.00272117 46114 METEOR-M2 4 1 59051U 24039A 26072.58831995 .00000051 00000+0 42379-4 0 9997 2 59051 98.6909 33.1413 0008201 86.6899 273.5217 14.22417999105679 GOES 19 1 60133U 24119A 26072.48391790 -.00000249 00000+0 00000+0 0 9992 2 60133 0.0389 355.7452 0001088 45.5763 228.8118 1.00271907 6006 FENGYUN 3H 1 65815U 25219A 26072.63030365 .00000100 00000+0 67641-4 0 9995 2 65815 98.6688 15.2980 0001204 60.1960 299.9336 14.19933855 23820